User: anonymous   Login
Location: Austin
(30.3000°N, 97.7500°W)
Time: 09:43:21
(UTC-05:00)
Language:

Cosmos 1378 - Orbit

View from above orbital plane
View from above orbital plane
View from above satellite
View from above satellite

Ground track
Ground track

The orbit data is extracted from the following two-line orbital elements,

1 13271U 82059A   23265.90019201  .00016694  00000-0  48051-3 0  9995
2 13271  82.4576  70.0933 0005063 170.6324 189.5015 15.35633001258390
Epoch (UTC): 22 September 2023 21:36:16
Eccentricity: 0.0005063
inclination: 82.4576°
perigee height: 455 km
apogee height: 462 km
right ascension of ascending node: 70.0933°
argument of perigee: 170.6324°
revolutions per day: 15.35633001
mean anomaly at epoch: 189.5015°
orbit number at epoch: 25839

The dashed part of the orbit path shows where the satellite is in the earth's shadow,  

DLR